Total_Precipitation_Accumulation
1.18 1.22 1.28 1.26 1.31 1.43 1.55 1.59 1.57 1.51 1.51 1.50 1.26 1.10 1.01 1.02 1.11 1.16 1.27 1.07 0.72 0.56 0.51 0.51 0.55 0.62 0.69 0.82 0.94 1.06 1.19 1.29 1.39 1.49 1.62 1.71 1.77 1.86
1.31 1.40 1.39 1.33 1.38 1.45 1.50 1.62 1.72 1.73 1.62 1.48 1.31 1.19 1.11 0.97 0.99 0.96 1.03 0.90 0.66 0.56 0.49 0.46 0.45 0.47 0.53 0.60 0.68 0.78 0.89 1.05 1.20 1.30 1.40 1.48 1.56 1.63
1.20 1.22 1.22 1.25 1.30 1.25 1.34 1.46 1.63 1.76 1.63 1.53 1.45 1.41 1.33 1.24 1.10 0.91 0.79 0.70 0.62 0.58 0.51 0.46 0.45 0.45 0.45 0.47 0.52 0.59 0.69 0.84 0.99 1.09 1.19 1.33 1.43 1.51
1.22 1.14 1.06 1.12 1.21 1.23 1.32 1.35 1.41 1.62 1.62 1.60 1.59 1.61 1.51 1.33 1.23 1.10 0.91 0.79 0.75 0.68 0.58 0.50 0.43 0.44 0.42 0.43 0.49 0.53 0.61 0.70 0.84 0.94 0.98 1.01 1.13 1.30
1.16 1.09 1.01 1.01 1.05 1.14 1.26 1.31 1.30 1.37 1.51 1.55 1.59 1.66 1.63 1.44 1.25 1.14 1.05 1.06 0.98 0.80 0.63 0.53 0.46 0.43 0.42 0.41 0.48 0.57 0.69 0.71 0.72 0.80 0.88 0.93 0.97 1.03
0.90 0.85 0.89 1.00 1.05 1.04 1.03 1.07 1.13 1.23 1.32 1.39 1.48 1.61 1.65 1.59 1.36 1.24 1.23 1.18 1.11 0.86 0.73 0.60 0.51 0.43 0.40 0.36 0.39 0.52 0.67 0.74 0.79 0.80 0.84 0.89 0.94 0.98
0.71 0.58 0.58 0.75 0.89 0.92 0.86 0.90 0.94 1.02 1.08 1.18 1.29 1.44 1.55 1.62 1.44 1.26 1.22 1.29 1.26 1.14 0.98 0.79 0.65 0.56 0.53 0.50 0.43 0.44 0.49 0.60 0.71 0.85 0.98 1.08 1.13 1.13
0.56 0.51 0.50 0.52 0.55 0.57 0.62 0.66 0.73 0.81 0.93 1.09 1.21 1.30 1.33 1.42 1.50 1.48 1.43 1.38 1.39 1.37 1.36 1.29 1.02 0.91 0.87 0.82 0.66 0.46 0.36 0.44 0.58 0.70 0.93 1.18 1.41 1.48
0.45 0.49 0.40 0.36 0.40 0.40 0.40 0.39 0.42 0.48 0.60 0.82 1.04 1.14 1.25 1.26 1.46 1.53 1.54 1.64 1.67 1.68 1.63 1.71 1.43 1.16 1.00 0.92 0.82 0.58 0.44 0.38 0.46 0.60 0.70 0.90 1.17 1.47
0.41 0.43 0.44 0.45 0.46 0.46 0.44 0.43 0.38 0.36 0.38 0.46 0.67 0.92 1.12 1.33 1.39 1.48 1.56 1.64 1.68 1.59 1.52 1.64 1.58 1.45 1.22 0.92 0.81 0.72 0.60 0.51 0.49 0.56 0.58 0.62 0.73 0.94
0.45 0.45 0.45 0.47 0.45 0.35 0.38 0.41 0.42 0.44 0.36 0.36 0.46 0.68 0.88 0.99 1.20 1.39 1.52 1.45 1.41 1.24 1.08 1.18 1.32 1.37 1.41 1.25 0.94 0.85 0.74 0.62 0.59 0.60 0.57 0.57 0.61 0.66
0.62 0.59 0.48 0.41 0.36 0.26 0.32 0.43 0.42 0.43 0.46 0.42 0.38 0.45 0.60 0.74 0.81 0.93 1.13 1.23 1.14 1.10 0.93 0.82 0.85 0.96 1.09 1.07 0.92 0.86 0.87 0.79 0.67 0.65 0.65 0.64 0.68 0.64
0.75 0.72 0.65 0.44 0.32 0.27 0.28 0.37 0.40 0.43 0.54 0.58 0.57 0.57 0.68 0.80 0.77 0.75 0.83 0.95 0.97 0.86 0.79 0.81 0.79 0.72 0.69 0.76 0.79 0.71 0.75 0.85 0.84 0.75 0.71 0.72 0.76 0.79
0.89 0.87 0.78 0.54 0.39 0.33 0.32 0.32 0.29 0.31 0.43 0.55 0.59 0.57 0.62 0.72 0.79 0.76 0.78 0.80 0.85 0.80 0.75 0.77 0.83 0.79 0.65 0.56 0.58 0.55 0.54 0.61 0.75 0.94 1.03 1.06 0.97 0.93
0.99 0.99 0.82 0.63 0.53 0.43 0.39 0.40 0.36 0.35 0.46 0.51 0.51 0.52 0.53 0.63 0.81 0.91 0.93 0.91 0.89 0.79 0.68 0.62 0.68 0.81 0.75 0.59 0.51 0.47 0.47 0.55 0.66 0.85 0.96 1.05 1.13 1.16
0.94 1.00 0.88 0.74 0.65 0.57 0.51 0.49 0.47 0.47 0.53 0.55 0.55 0.59 0.62 0.68 0.76 0.85 0.91 0.92 0.87 0.75 0.65 0.59 0.58 0.66 0.75 0.67 0.56 0.54 0.52 0.60 0.67 0.83 0.99 1.07 1.09 1.17
0.98 1.04 1.06 0.95 0.84 0.75 0.71 0.72 0.71 0.66 0.60 0.64 0.67 0.69 0.68 0.68 0.73 0.78 0.81 0.83 0.78 0.67 0.56 0.58 0.60 0.65 0.67 0.64 0.61 0.55 0.52 0.52 0.54 0.63 0.79 0.94 1.06 1.14
0.94 0.99 1.09 1.07 0.99 0.91 0.85 0.86 0.85 0.80 0.74 0.74 0.73 0.73 0.71 0.68 0.70 0.74 0.76 0.76 0.74 0.69 0.59 0.51 0.52 0.60 0.69 0.67 0.57 0.50 0.46 0.43 0.45 0.53 0.60 0.64 0.70 0.80
0.85 0.91 0.99 1.04 1.01 0.98 0.92 0.90 0.87 0.87 0.85 0.80 0.76 0.76 0.74 0.69 0.67 0.69 0.69 0.72 0.73 0.73 0.70 0.62 0.51 0.42 0.47 0.51 0.48 0.42 0.44 0.39 0.40 0.47 0.55 0.52 0.51 0.57
0.79 0.85 0.90 0.94 0.94 0.94 0.93 0.94 0.91 0.91 0.86 0.82 0.77 0.74 0.73 0.67 0.67 0.68 0.64 0.62 0.66 0.70 0.73 0.64 0.54 0.42 0.35 0.41 0.46 0.41 0.40 0.46 0.42 0.41 0.41 0.43 0.45 0.44
0.77 0.80 0.81 0.82 0.85 0.87 0.87 0.90 0.89 0.84 0.80 0.79 0.75 0.69 0.67 0.63 0.63 0.63 0.62 0.62 0.64 0.64 0.62 0.53 0.46 0.55 0.55 0.52 0.54 0.56 0.49 0.48 0.54 0.47 0.42 0.40 0.42 0.43
0.72 0.74 0.70 0.69 0.73 0.77 0.80 0.83 0.81 0.79 0.78 0.73 0.70 0.65 0.59 0.57 0.56 0.56 0.56 0.54 0.53 0.56 0.58 0.63 0.63 0.59 0.57 0.50 0.45 0.49 0.57 0.55 0.57 0.63 0.55 0.49 0.40 0.34
0.68 0.62 0.57 0.58 0.61 0.64 0.66 0.67 0.69 0.73 0.69 0.65 0.67 0.63 0.56 0.55 0.53 0.55 0.53 0.51 0.51 0.56 0.65 0.70 0.69 0.59 0.54 0.55 0.51 0.48 0.53 0.58 0.58 0.59 0.55 0.49 0.45 0.38